FW9251 Weather Reports


time (UTC)temp
F
wind
direction
speed
knots
gust
knots
rain 1hr
in
rain 24hr
in
rain mn
in
humidity
%
barometer
mb
20260505152133 57 310 0.9 0.9 0.00 0.00 0.00 87 1015.0
20260505151628 57 312 0.9 0.9 0.00 0.00 0.00 87 1015.0
20260505151126 57 1 0.9 0.9 0.00 0.00 0.00 87 1014.9
20260505150621 57 156 0.0 0.0 0.00 0.00 0.00 87 1015.0
20260505150119 57 232 0.0 0.9 0.00 0.00 0.00 87 1014.8
20260505140547 55 235 0.0 0.0 0.00 0.00 0.00 88 1014.3
20260505125001 55 205 0.0 0.0 0.00 0.00 0.00 91 1014.0
20260505124457 55 204 0.0 0.0 0.00 0.00 0.00 91 1013.9
20260505123953 55 205 0.0 0.0 0.00 0.00 0.00 91 1014.0
20260505123450 55 203 0.0 0.0 0.00 0.00 0.00 91 1013.9
20260505122946 55 209 0.0 0.0 0.00 0.00 0.00 90 1013.9
20260505122444 55 257 0.0 0.0 0.00 0.00 0.00 90 1013.9
20260505121940 55 0 0.9 0.9 0.00 0.00 0.00 90 1014.0
20260505121437 54 309 0.9 0.9 0.00 0.00 0.00 90 1014.0
20260505120933 54 208 0.0 0.0 0.00 0.00 0.00 91 1014.1
20260505120430 54 227 0.0 0.0 0.00 0.00 0.00 91 1013.8
20260505115929 54 321 0.0 0.9 0.00 0.00 0.00 91 1013.8
20260505115426 54 192 0.0 0.0 0.00 0.00 0.00 92 1013.8
20260505114924 54 258 0.0 0.9 0.00 0.00 0.00 92 1013.7
20260505114420 54 212 0.0 0.0 0.00 0.00 0.00 92 1013.8
20260505113916 54 219 0.0 0.0 0.00 0.00 0.00 92 1013.5
20260505113413 54 332 2.6 2.6 0.00 0.00 0.00 93 1013.8
20260505112909 54 234 0.9 0.9 0.00 0.00 0.00 93 1013.8
20260505112407 54 299 1.7 2.6 0.00 0.00 0.00 93 1013.5
20260505111902 54 271 0.0 0.9 0.00 0.00 0.00 93 1013.8
20260505111357 54 350 1.7 1.7 0.00 0.00 0.00 93 1013.7
20260505110853 54 351 2.6 2.6 0.00 0.00 0.00 93 1013.9
20260505110351 54 240 0.0 0.9 0.00 0.00 0.00 93 1013.7
20260505101821 55 306 0.9 0.9 0.00 0.00 0.00 90 1013.4
20260505101316 55 303 3.5 5.2 0.00 0.00 0.00 90 1013.5
20260505100812 55 310 1.7 1.7 0.00 0.00 0.00 90 1013.4
20260505100309 55 292 2.6 4.3 0.00 0.00 0.00 90 1013.2
20260505095805 55 283 1.7 1.7 0.00 0.00 0.00 90 1013.6
20260505095304 55 264 1.7 1.7 0.00 0.00 0.00 91 1013.3
20260505094758 55 311 0.9 1.7 0.00 0.00 0.00 91 1013.4
20260505094255 55 333 3.5 4.3 0.00 0.00 0.00 91 1013.2
20260505093751 55 106 1.7 1.7 0.00 0.00 0.00 91 1013.1
20260505093249 55 311 1.7 1.7 0.00 0.00 0.00 91 1013.0
20260505092745 55 337 5.2 7.8 0.00 0.00 0.00 91 1013.2
20260505092244 55 351 2.6 2.6 0.00 0.00 0.00 91 1013.2
20260505091741 55 296 1.7 1.7 0.00 0.00 0.00 91 1013.1
20260505091239 55 314 0.9 1.7 0.00 0.00 0.00 91 1013.0
20260505090736 55 309 2.6 4.3 0.00 0.00 0.00 91 1013.0
20260505090234 55 311 1.7 1.7 0.00 0.00 0.00 91 1013.1
20260505085731 55 196 0.9 1.7 0.00 0.00 0.00 91 1012.8
20260505085230 55 323 1.7 1.7 0.00 0.00 0.00 91 1013.0
20260505084726 55 333 1.7 1.7 0.00 0.00 0.00 91 1012.9
20260505084226 55 334 2.6 4.3 0.00 0.00 0.00 91 1012.7
20260505083722 55 328 4.3 6.1 0.00 0.00 0.00 91 1012.8
20260505083219 55 293 1.7 2.6 0.00 0.00 0.00 91 1012.9
20260505082715 55 313 1.7 2.6 0.00 0.00 0.00 91 1012.7
20260505082213 55 152 4.3 6.1 0.00 0.00 0.00 91 1012.7
20260505081708 55 345 2.6 2.6 0.00 0.00 0.00 91 1012.5
20260505081206 55 312 1.7 2.6 0.00 0.00 0.00 91 1012.7
20260505080703 55 318 2.6 2.6 0.00 0.00 0.00 91 1012.6
20260505080158 55 313 2.6 2.6 0.00 0.00 0.00 91 1012.5
20260505075654 55 303 4.3 5.2 0.00 0.00 0.00 91 1012.5
20260505075151 55 301 4.3 5.2 0.00 0.00 0.00 91 1012.5
20260505074648 55 303 0.9 2.6 0.00 0.00 0.00 91 1012.6
20260505074145 55 310 1.7 1.7 0.00 0.00 0.00 91 1012.7
20260505073643 55 345 1.7 2.6 0.00 0.00 0.00 91 1012.3
20260505073141 55 333 0.9 1.7 0.00 0.00 0.00 91 1012.5
20260505072636 55 324 2.6 4.3 0.00 0.00 0.00 91 1012.1
20260505072133 55 170 0.0 0.0 0.00 0.00 0.00 91 1012.3
20260505071628 55 343 2.6 2.6 0.00 0.00 0.00 91 1012.3
20260505071127 55 311 1.7 2.6 0.00 0.00 0.00 91 1012.1
20260505070624 55 331 1.7 2.6 0.00 0.00 0.00 91 1012.2
20260505070120 55 309 3.5 5.2 0.00 0.00 0.00 91 1012.1
20260505065616 55 323 2.6 4.3 0.00 0.00 0.00 91 1012.0
20260505065112 55 307 1.7 1.7 0.00 0.00 0.00 91 1011.8
20260505064609 55 13 5.2 7.8 0.00 0.00 0.00 91 1011.7
20260505064108 55 33 1.7 2.6 0.00 0.00 0.00 91 1011.6
20260505063605 55 344 3.5 5.2 0.00 0.00 0.00 91 1011.6
20260505063100 55 251 1.7 2.6 0.00 0.00 0.00 91 1011.6
20260505062557 55 206 0.9 1.7 0.00 0.00 0.00 91 1011.5
20260505062055 55 330 2.6 5.2 0.00 0.00 0.00 91 1011.7
20260505061552 55 297 2.6 2.6 0.00 0.00 0.00 91 1011.3
20260505061050 55 320 7.0 9.6 0.00 0.00 0.00 91 1011.5
20260505060547 56 316 3.5 4.3 0.00 0.00 0.00 90 1011.3
20260505060044 56 312 1.7 1.7 0.00 0.00 0.00 91 1011.4
20260505055539 55 313 3.5 5.2 0.00 0.00 0.00 91 1011.2
20260505055036 55 315 5.2 7.0 0.00 0.00 0.00 91 1011.3
20260505054533 55 212 0.9 0.9 0.00 0.00 0.00 91 1011.5
20260505054031 55 292 4.3 5.2 0.00 0.00 0.00 91 1011.2
20260505053528 55 263 2.6 4.3 0.00 0.00 0.00 91 1011.2
20260505053025 55 314 2.6 2.6 0.00 0.00 0.00 91 1011.5
20260505052522 55 293 2.6 4.3 0.00 0.00 0.00 90 1011.6
20260505052019 55 211 1.7 1.7 0.00 0.00 0.00 90 1011.3
20260505051516 56 324 2.6 2.6 0.00 0.00 0.00 90 1011.3
20260505051014 56 237 2.6 4.3 0.00 0.00 0.00 89 1011.3
20260505050512 56 295 4.3 5.2 0.00 0.00 0.00 89 1011.1
20260505041439 59 330 3.5 5.2 0.00 0.00 0.00 84 1010.8
20260505040937 59 318 2.6 4.3 0.00 0.00 0.00 83 1010.6
20260505040434 59 322 2.6 2.6 0.00 0.00 0.00 83 1010.7
20260505035931 60 311 2.6 4.3 0.00 0.00 0.00 82 1010.6
20260505035427 60 298 2.6 5.2 0.00 0.00 0.00 81 1010.6
20260505034924 60 216 0.0 0.9 0.00 0.00 0.00 80 1010.5
20260505034420 61 324 1.7 4.3 0.00 0.00 0.00 79 1010.1
20260505033918 61 358 0.9 1.7 0.00 0.00 0.00 79 1010.2
20260505033414 61 193 3.5 4.3 0.00 0.00 0.00 78 1010.0
20260505032913 62 14 2.6 4.3 0.00 0.00 0.00 77 1009.8
20260505032409 62 108 0.0 0.9 0.00 0.00 0.00 77 1009.8
20260505031906 62 351 4.3 5.2 0.00 0.00 0.00 76 1009.8
20260505031403 63 198 0.0 0.9 0.00 0.00 0.00 76 1009.6
20260505030900 63 329 4.3 7.8 0.00 0.00 0.00 75 1009.7
20260505030356 64 252 1.7 1.7 0.00 0.00 0.00 74 1009.7
20260505025851 64 347 5.2 6.1 0.00 0.00 0.00 74 1009.5
20260505025349 64 325 3.5 5.2 0.00 0.00 0.00 73 1009.5
20260505024848 65 254 0.0 0.9 0.00 0.00 0.00 73 1009.3
20260505024345 65 334 3.5 4.3 0.00 0.00 0.00 72 1009.5
20260505023842 66 303 2.6 2.6 0.00 0.00 0.00 72 1009.2
20260505023339 66 246 2.6 4.3 0.00 0.00 0.00 71 1009.3
20260505022836 66 303 0.9 1.7 0.00 0.00 0.00 70 1009.1
20260505022333 67 318 4.3 5.2 0.00 0.00 0.00 70 1009.1
20260505021830 67 262 2.6 4.3 0.00 0.00 0.00 69 1009.2
20260505021327 68 209 1.7 1.7 0.00 0.00 0.00 69 1009.1
20260505020822 68 310 7.0 8.7 0.00 0.00 0.00 68 1009.2
20260505020318 68 315 2.6 4.3 0.00 0.00 0.00 67 1009.0
20260505015815 69 313 2.6 5.2 0.00 0.00 0.00 67 1009.1
20260505015312 69 321 1.7 2.6 0.00 0.00 0.00 67 1009.1
20260505014810 69 248 4.3 6.1 0.00 0.00 0.00 66 1009.0
20260505014307 69 259 1.7 1.7 0.00 0.00 0.00 66 1009.1
20260505013803 70 321 3.5 6.1 0.00 0.00 0.00 65 1009.0
20260505013300 70 307 5.2 6.1 0.00 0.00 0.00 64 1009.0
20260505012759 71 303 3.5 5.2 0.00 0.00 0.00 65 1008.8
20260505012256 71 312 1.7 2.6 0.00 0.00 0.00 65 1008.9
20260505011751 72 306 3.5 5.2 0.00 0.00 0.00 63 1009.3
20260505011249 72 275 2.6 4.3 0.00 0.00 0.00 63 1009.1
20260505010744 72 284 3.5 4.3 0.00 0.00 0.00 63 1009.0
20260505010241 72 341 1.7 2.6 0.00 0.00 0.00 63 1008.9
20260505005737 72 342 1.7 1.7 0.00 0.00 0.00 65 1009.1
20260505005234 72 320 2.6 2.6 0.00 0.00 0.00 67 1008.9
20260505004731 72 330 0.9 0.9 0.00 0.00 0.00 68 1009.0
20260505004228 72 56 0.0 0.9 0.00 0.00 0.00 68 1009.2
20260505003725 72 116 0.0 0.0 0.00 0.00 0.00 69 1009.1
20260505003223 73 84 0.0 0.9 0.00 0.00 0.00 68 1008.9
20260505002719 72 170 0.0 0.9 0.00 0.00 0.00 68 1009.2
20260505002216 72 136 1.7 2.6 0.00 0.00 0.00 69 1009.2
20260505001714 72 159 0.9 1.7 0.00 0.00 0.00 68 1009.0
20260505001211 72 115 4.3 6.1 0.00 0.00 0.00 68 1009.1
20260505000708 72 100 2.6 4.3 0.00 0.00 0.00 69 1009.4
20260505000206 72 172 2.6 4.3 0.00 0.00 0.00 69 1009.2
20260504235702 72 139 2.6 2.6 0.00 0.00 0.00 68 1009.0
20260504235158 72 106 1.7 2.6 0.00 0.00 0.00 68 1009.2
20260504234656 72 139 2.6 2.6 0.00 0.00 0.00 68 1009.4
20260504234153 72 137 1.7 1.7 0.00 0.00 0.00 69 1009.2
20260504233649 72 153 2.6 4.3 0.00 0.00 0.00 69 1009.2
20260504233145 72 84 2.6 5.2 0.00 0.00 0.00 69 1009.1
20260504232643 72 79 2.6 5.2 0.00 0.00 0.00 69 1009.2
20260504232139 72 111 4.3 6.1 0.00 0.00 0.00 68 1009.3
20260504231636 72 130 4.3 5.2 0.00 0.00 0.00 68 1009.1
20260504231132 73 145 3.5 6.1 0.00 0.00 0.00 67 1009.1
20260504230629 72 118 3.5 4.3 0.00 0.00 0.00 67 1009.3
20260504230127 73 164 4.3 5.2 0.00 0.00 0.00 67 1009.4
20260504225625 73 101 2.6 4.3 0.00 0.00 0.00 67 1009.5
20260504225121 73 112 3.5 4.3 0.00 0.00 0.00 67 1009.3
20260504224618 72 199 2.6 2.6 0.00 0.00 0.00 67 1009.4
20260504224115 72 133 2.6 4.3 0.00 0.00 0.00 69 1009.8
20260504223612 71 138 1.7 4.3 0.00 0.00 0.00 69 1009.7
20260504223108 71 134 2.6 2.6 0.00 0.00 0.00 68 1009.7
20260504222605 72 160 3.5 4.3 0.00 0.00 0.00 68 1009.7
20260504222102 72 116 3.5 5.2 0.00 0.00 0.00 68 1009.9
20260504221559 71 125 2.6 2.6 0.00 0.00 0.00 70 1009.9
20260504221056 71 128 4.3 5.2 0.00 0.00 0.00 68 1009.9
20260504220552 72 109 2.6 5.2 0.00 0.00 0.00 69 1010.1
20260504220049 72 121 4.3 6.1 0.00 0.00 0.00 69 1010.3
20260504215546 71 194 2.6 2.6 0.00 0.00 0.00 71 1010.3
20260504215044 71 205 5.2 6.1 0.00 0.00 0.00 68 1010.1
20260504214539 71 167 2.6 2.6 0.00 0.00 0.00 70 1010.2
20260504214036 71 160 3.5 5.2 0.00 0.00 0.00 71 1010.2
20260504213532 71 106 3.5 5.2 0.00 0.00 0.00 70 1010.5
20260504213030 71 84 2.6 4.3 0.00 0.00 0.00 71 1010.6
20260504212525 71 165 2.6 4.3 0.00 0.00 0.00 70 1010.5
20260504212023 71 213 2.6 2.6 0.00 0.00 0.00 70 1010.8
20260504211520 70 177 2.6 4.3 0.00 0.00 0.00 70 1010.5
20260504211017 70 107 2.6 2.6 0.00 0.00 0.00 70 1010.8
20260504210513 70 104 3.5 6.1 0.00 0.00 0.00 70 1010.8
20260504210010 69 101 5.2 7.0 0.00 0.00 0.00 69 1010.9
20260504205508 70 214 1.7 2.6 0.00 0.00 0.00 71 1010.7
20260504205006 69 179 4.3 5.2 0.00 0.00 0.00 70 1010.9
20260504204504 70 104 3.5 6.1 0.00 0.00 0.00 70 1011.0
20260504204003 70 150 2.6 2.6 0.00 0.00 0.00 71 1011.1
20260504203500 70 163 2.6 2.6 0.00 0.00 0.00 71 1011.2
20260504202956 69 159 2.6 5.2 0.00 0.00 0.00 71 1011.2
20260504202453 69 125 3.5 5.2 0.00 0.00 0.00 70 1011.3
20260504201950 70 136 4.3 6.1 0.00 0.00 0.00 69 1011.3
20260504201447 69 175 1.7 2.6 0.00 0.00 0.00 70 1011.3
20260504200944 69 132 5.2 6.1 0.00 0.00 0.00 70 1011.4
20260504200441 69 201 3.5 5.2 0.00 0.00 0.00 71 1011.3
20260504195937 69 101 3.5 6.1 0.00 0.00 0.00 71 1011.4
20260504195433 68 116 4.3 7.0 0.00 0.00 0.00 73 1011.5
20260504194930 68 189 4.3 5.2 0.00 0.00 0.00 71 1011.7
20260504194426 68 88 4.3 6.1 0.00 0.00 0.00 72 1011.5
20260504193922 69 349 3.5 5.2 0.00 0.00 0.00 73 1011.5
20260504193419 68 136 2.6 4.3 0.00 0.00 0.00 72 1011.3
20260504192918 68 120 3.5 5.2 0.00 0.00 0.00 73 1011.6
20260504192415 68 187 0.9 1.7 0.00 0.00 0.00 73 1011.8
20260504191914 69 133 1.7 5.2 0.00 0.00 0.00 72 1011.5
20260504191412 68 206 2.6 4.3 0.00 0.00 0.00 73 1011.8
20260504190906 68 144 1.7 2.6 0.00 0.00 0.00 74 1011.7
20260504190403 68 64 0.9 1.7 0.00 0.00 0.00 76 1011.8
20260504185900 67 171 4.3 6.1 0.00 0.00 0.00 73 1011.8
20260504185357 68 112 3.5 5.2 0.00 0.00 0.00 73 1012.0
20260504184853 69 112 1.7 2.6 0.00 0.00 0.00 72 1012.0
20260504184348 68 86 0.9 1.7 0.00 0.00 0.00 75 1011.9
20260504183844 67 105 1.7 2.6 0.00 0.00 0.00 74 1012.0
20260504183342 67 139 4.3 7.0 0.00 0.00 0.00 73 1012.0
20260504182840 68 151 2.6 4.3 0.00 0.00 0.00 72 1011.9
20260504182337 67 120 2.6 2.6 0.00 0.00 0.00 73 1011.8
20260504181833 66 72 3.5 4.3 0.00 0.00 0.00 73 1011.8
20260504181331 66 103 5.2 6.1 0.00 0.00 0.00 73 1011.9
20260504180830 67 181 2.6 4.3 0.00 0.00 0.00 72 1011.9
20260504180328 67 121 0.9 1.7 0.00 0.00 0.00 74 1011.9
20260504175826 66 205 3.5 5.2 0.00 0.00 0.00 74 1011.9
20260504175322 66 91 0.9 1.7 0.00 0.00 0.00 75 1012.2
20260504174821 66 123 2.6 4.3 0.00 0.00 0.00 75 1012.2
20260504174318 65 116 3.5 5.2 0.00 0.00 0.00 76 1012.1
20260504173814 65 104 4.3 6.1 0.00 0.00 0.00 75 1011.9
20260504173311 65 38 2.6 4.3 0.00 0.00 0.00 75 1012.0
20260504172808 65 84 0.9 0.9 0.00 0.00 0.00 78 1012.0
20260504172305 65 82 2.6 4.3 0.00 0.00 0.00 76 1012.0
20260504171800 67 144 2.6 2.6 0.00 0.00 0.00 73 1012.1
20260504171258 66 104 0.9 1.7 0.00 0.00 0.00 75 1011.9
20260504170755 67 66 0.0 0.9 0.00 0.00 0.00 73 1012.0
20260504170252 65 70 0.0 0.9 0.00 0.00 0.00 75 1012.0
20260504160210 62 53 0.9 1.7 0.00 0.00 0.00 77 1011.8